User: anonymous   Login
Location: Vancouver
(49.2500°N, 123.1330°W)
Time: 07:49:36
(UTC-07:00)
Language:

AO-27 - Orbit

View from above orbital plane
View from above orbital plane
View from above satellite
View from above satellite

Ground track
Ground track

The orbit data is extracted from the following two-line orbital elements,

1 22825U 93061C   17207.86550176 -.00000008 +00000-0 +14536-4 0  9995
2 22825 098.8153 173.9422 0007754 209.3653 150.7094 14.30001333242804
Epoch (UTC): 26 July 2017 20:46:19
Eccentricity: 0.0007754
inclination: 98.8153°
perigee height: 786 km
apogee height: 797 km
right ascension of ascending node: 173.9422°
argument of perigee: 209.3653°
revolutions per day: 14.30001333
mean anomaly at epoch: 150.7094°
orbit number at epoch: 24280

The dashed part of the orbit path shows where the satellite is in the earth's shadow,  

DLR